| time (UTC) | temp F | wind direction | speed MPH | gust MPH | rain 1hr in | rain 24hr in | rain mn in | humidity % | barometer mb |
| 20260509143034 | 44 | 125 | 2.0 | 5.0 | 0.00 | 0.00 | 0.00 | 93 | 1024.8 |
| 20260509140031 | 38 | 113 | 3.0 | 21.0 | 0.00 | 0.00 | 0.00 | 93 | 1024.5 |
| 20260509134534 | 38 | 117 | 33.0 | 205.0 | 0.00 | 0.00 | 0.00 | 93 | 1024.6 |
| 20260509133107 | 38 | 139 | 8.0 | 104.0 | 0.00 | 0.00 | 0.00 | 93 | 1024.5 |
| 20260509131535 | 37 | 154 | 3.0 | 58.0 | 0.00 | 0.00 | 0.00 | 91 | 1024.5 |
| 20260509130034 | 38 | 128 | 9.0 | 116.0 | 0.00 | 0.00 | 0.00 | 91 | 1024.3 |
| 20260509124531 | 39 | 145 | 1.0 | 25.0 | 0.00 | 0.00 | 0.00 | 90 | 1024.2 |
| 20260509123034 | 39 | 115 | 9.0 | 64.0 | 0.00 | 0.00 | 0.00 | 89 | 1024.2 |
| 20260509120033 | 40 | 135 | 0.0 | 4.0 | 0.00 | 0.00 | 0.00 | 86 | 1024.1 |
| 20260509114532 | 42 | 145 | 5.0 | 125.0 | 0.00 | 0.00 | 0.00 | 83 | 1024.0 |
| 20260509113030 | 44 | 222 | 0.0 | 2.0 | 0.00 | 0.00 | 0.00 | 80 | 1024.1 |
| 20260509111532 | 46 | 163 | 3.0 | 10.0 | 0.00 | 0.00 | 0.00 | 79 | 1024.2 |
| 20260509110035 | 47 | 156 | 4.0 | 8.0 | 0.00 | 0.00 | 0.00 | 78 | 1024.2 |
| 20260509104535 | 48 | 148 | 6.0 | 10.0 | 0.00 | 0.00 | 0.00 | 78 | 1024.2 |
| 20260509103035 | 48 | 149 | 6.0 | 18.0 | 0.00 | 0.00 | 0.00 | 79 | 1024.2 |
| 20260509101535 | 47 | 158 | 6.0 | 13.0 | 0.00 | 2.39 | 0.00 | 79 | 1024.3 |
| 20260509100035 | 48 | 142 | 4.0 | 10.0 | 0.00 | 2.39 | 0.00 | 79 | 1024.4 |
| 20260509094532 | 49 | 144 | 5.0 | 9.0 | 0.00 | 2.39 | 0.00 | 78 | 1024.5 |
| 20260509090142 | 51 | 143 | 4.0 | 7.0 | 0.00 | 2.39 | 0.00 | 76 | 1024.7 |
| 20260509084531 | 51 | 146 | 5.0 | 9.0 | 0.00 | 2.39 | 0.00 | 76 | 1024.9 |
| 20260509083034 | 51 | 141 | 6.0 | 10.0 | 0.00 | 2.39 | 0.00 | 76 | 1025.1 |
| 20260509081532 | 51 | 139 | 6.0 | 11.0 | 0.00 | 2.39 | 0.00 | 75 | 1025.4 |
| 20260509074532 | 51 | 145 | 5.0 | 13.0 | 0.00 | 2.39 | 0.00 | 74 | 1025.5 |
| 20260509071536 | 53 | 196 | 3.0 | 6.0 | 0.00 | 2.39 | 0.00 | 72 | 1025.7 |
| 20260509070033 | 54 | 181 | 3.0 | 7.0 | 0.00 | 2.39 | 0.00 | 71 | 1025.8 |
| 20260509064535 | 54 | 172 | 3.0 | 4.0 | 0.00 | 2.39 | 2.39 | 70 | 1025.8 |
| 20260509063035 | 55 | 152 | 3.0 | 12.0 | 0.00 | 2.39 | 2.39 | 69 | 1025.8 |
| 20260509060036 | 53 | 152 | 6.0 | 14.0 | 0.00 | 2.39 | 2.39 | 71 | 1025.6 |
| 20260509054641 | 50 | 120 | 4.0 | 7.0 | 0.00 | 2.39 | 2.39 | 74 | 1025.5 |
| 20260509051607 | 51 | 120 | 4.0 | 7.0 | 0.00 | 2.39 | 2.39 | 72 | 1025.4 |
| 20260509050032 | 53 | 152 | 4.0 | 4.0 | 0.00 | 2.39 | 2.39 | 67 | 1025.4 |
| 20260509044531 | 54 | 161 | 3.0 | 5.0 | 0.00 | 2.39 | 2.39 | 66 | 1025.3 |
| 20260509043032 | 54 | 169 | 4.0 | 8.0 | 0.00 | 2.39 | 2.39 | 65 | 1025.2 |
| 20260509041536 | 55 | 140 | 3.0 | 6.0 | 0.00 | 2.39 | 2.39 | 64 | 1024.9 |
| 20260509040034 | 55 | 151 | 4.0 | 7.0 | 0.00 | 2.39 | 2.39 | 62 | 1024.7 |
| 20260509034641 | 57 | 141 | 3.0 | 7.0 | 0.00 | 2.39 | 2.39 | 59 | 1024.6 |
| 20260509033108 | 58 | 171 | 3.0 | 7.0 | 0.00 | 2.39 | 2.39 | 58 | 1024.4 |
| 20260509031536 | 58 | 188 | 2.0 | 8.0 | 0.00 | 2.39 | 2.39 | 57 | 1024.3 |
| 20260509030033 | 59 | 197 | 2.0 | 7.0 | 0.00 | 2.39 | 2.39 | 54 | 1024.1 |
| 20260509024531 | 61 | 226 | 4.0 | 10.0 | 0.00 | 2.39 | 2.39 | 52 | 1024.0 |
| 20260509023147 | 61 | 208 | 4.0 | 10.0 | 0.00 | 2.39 | 2.39 | 51 | 1023.9 |
| 20260509021642 | 62 | 207 | 6.0 | 13.0 | 0.00 | 2.39 | 2.39 | 49 | 1023.9 |
| 20260509020149 | 63 | 208 | 8.0 | 17.0 | 0.00 | 2.39 | 2.39 | 47 | 1023.7 |
| 20260509014533 | 64 | 211 | 7.0 | 18.0 | 0.00 | 2.39 | 2.39 | 45 | 1023.5 |
| 20260509013035 | 65 | 207 | 9.0 | 20.0 | 0.00 | 2.39 | 2.39 | 43 | 1023.5 |
| 20260509010107 | 66 | 213 | 6.0 | 18.0 | 0.00 | 2.39 | 2.39 | 39 | 1023.4 |
| 20260509004532 | 66 | 205 | 9.0 | 26.0 | 0.00 | 2.39 | 2.39 | 38 | 1023.3 |
| 20260509001537 | 68 | 204 | 7.0 | 21.0 | 0.00 | 2.39 | 2.39 | 34 | 1022.9 |
| 20260508234535 | 68 | 215 | 8.0 | 23.0 | 0.00 | 2.39 | 2.39 | 34 | 1022.9 |
| 20260508233035 | 68 | 204 | 6.0 | 16.0 | 0.00 | 2.39 | 2.39 | 32 | 1023.0 |
| 20260508231533 | 69 | 210 | 8.0 | 20.0 | 0.00 | 2.39 | 2.39 | 32 | 1022.9 |
| 20260508230035 | 69 | 202 | 6.0 | 18.0 | 0.00 | 2.39 | 2.39 | 31 | 1022.8 |
| 20260508224535 | 69 | 208 | 9.0 | 20.0 | 0.00 | 2.39 | 2.39 | 30 | 1022.8 |
| 20260508223143 | 69 | 206 | 7.0 | 17.0 | 0.00 | 2.39 | 2.39 | 30 | 1022.7 |
| 20260508221537 | 68 | 211 | 7.0 | 17.0 | 0.00 | 2.39 | 2.39 | 30 | 1022.6 |
| 20260508214535 | 68 | 232 | 7.0 | 18.0 | 0.00 | 2.39 | 2.39 | 30 | 1022.7 |
| 20260508213110 | 68 | 219 | 8.0 | 21.0 | 0.00 | 2.39 | 2.39 | 30 | 1022.8 |
| 20260508211535 | 67 | 222 | 8.0 | 18.0 | 0.00 | 2.39 | 2.39 | 31 | 1022.7 |
| 20260508210031 | 67 | 211 | 11.0 | 31.0 | 0.00 | 2.39 | 2.39 | 31 | 1022.6 |
| 20260508204536 | 66 | 213 | 12.0 | 30.0 | 0.00 | 2.39 | 2.39 | 32 | 1022.6 |
| 20260508201536 | 65 | 200 | 13.0 | 32.0 | 0.00 | 2.39 | 2.39 | 34 | 1022.6 |
| 20260508200034 | 65 | 196 | 10.0 | 21.0 | 0.00 | 2.39 | 2.39 | 35 | 1022.5 |
| 20260508193034 | 64 | 189 | 9.0 | 20.0 | 0.00 | 2.39 | 2.39 | 37 | 1022.6 |
| 20260508191534 | 64 | 179 | 9.0 | 16.0 | 0.00 | 2.39 | 2.39 | 38 | 1022.5 |
| 20260508190140 | 63 | 182 | 8.0 | 18.0 | 0.00 | 2.39 | 2.39 | 40 | 1022.5 |
| 20260508184642 | 59 | 330 | 7.0 | 16.0 | 0.00 | 2.39 | 2.39 | 53 | 1022.4 |
| 20260508183033 | 58 | 325 | 5.0 | 18.0 | 0.00 | 2.39 | 2.39 | 56 | 1022.3 |
| 20260508181537 | 57 | 343 | 5.0 | 12.0 | 0.00 | 2.39 | 2.39 | 54 | 1022.1 |
| 20260508180035 | 56 | 326 | 4.0 | 12.0 | 0.00 | 2.39 | 2.39 | 56 | 1022.1 |
| 20260508174535 | 56 | 339 | 3.0 | 9.0 | 0.00 | 2.39 | 2.39 | 55 | 1022.1 |
| 20260508173030 | 57 | 275 | 4.0 | 15.0 | 0.00 | 2.39 | 2.39 | 50 | 1022.0 |
| 20260508171535 | 57 | 171 | 3.0 | 13.0 | 0.00 | 2.39 | 2.39 | 52 | 1021.8 |
| 20260508170035 | 56 | 160 | 3.0 | 10.0 | 0.00 | 2.39 | 2.39 | 54 | 1021.8 |
| 20260508163150 | 57 | 189 | 5.0 | 12.0 | 0.00 | 2.39 | 2.39 | 52 | 1021.9 |
| 20260508161535 | 56 | 262 | 9.0 | 20.0 | 0.00 | 2.39 | 2.39 | 52 | 1022.0 |
| 20260508160035 | 57 | 255 | 9.0 | 21.0 | 0.00 | 2.39 | 2.39 | 52 | 1022.0 |
| 20260508154532 | 57 | 237 | 8.0 | 16.0 | 0.00 | 2.39 | 2.39 | 53 | 1022.0 |
| 20260508153035 | 57 | 231 | 7.0 | 18.0 | 0.00 | 2.39 | 2.39 | 56 | 1021.9 |
| 20260508150029 | 57 | 218 | 6.0 | 13.0 | 0.00 | 2.39 | 2.39 | 59 | 1021.5 |